STARLINK-1783

decayed
NORAD ID: 46686 Int'l Des: 2020-073 Owner: SPXS Country: US Constellation: starlink
LEOCIRCULAR

关于 STARLINK-1783

正在加载描述...

高度历史

Altitude vs Time

uPlot chart will show altitude changes over time

两行轨道根数

1 46686U 20073S 24160.62730618 .11860947 11933-4 45736-2 0 9992
2 46686 53.0447 211.0661 0002354 313.0057 186.0218 16.23328042201555
Epoch: Jun 8, 2024 • Age: 10987 hours

当前状态

Position data unavailable
发射日期 Oct 18, 2020
运行时间 4.8 years
衰减日期 Jun 9, 2024
类型 internet

技术详情

分类 Payload
质量 260.00 kg
干质量 248.00 kg
总质量 260.00 kg
长度 0.20 m
直径 2.80 m
跨度 9.00 m
形状 Box + pan
制造商 SPXS
平台类型 Starlink
阶段状态 Reentered
所有者/国家 SPXS/US

大型星座

Loading constellations...